本田-ムルコス-パイドゥシャーコヴァー彗星

45P/Honda-Mrkos-Pajdusakova (2022)

English version
Home page
Updated on January 9, 2023

---------------------------------------------------------------------

・ プロフィール

・ 写真集

・ 軌道要素

Epoch 2022 Jan. 21.0 TT = JDT 2459600.5
T 2022 Apr. 26.95069 TT                                 Rudenko
q   0.5571418            (2000.0)            P               Q
n   0.18464275     Peri.  327.90925     +0.56325262     -0.82284500
a   3.0543200      Node    87.70493     +0.77313957     +0.49266914
e   0.8175889      Incl.    4.32288     +0.29155048     +0.28320173
P   5.34
From 1822 observations 2016 Nov. 6-2022 May 19, mean residual 0".7.
     Nongravitational parameters A1 = +0.10, A2 = -0.0566.

・ 星図

・ 光度変化

        m1 = 13.0 + 5 logΔ + 30.0 log r(t - 5)  [ ,5]  (              〜2022年 4月30日)
        m1 =  9.0 + 5 logΔ + 14.0 log r(t - 5)  [5, ]  (2022年 4月30日〜              )

---------------------------------------------------------------------

軌道要素はM.P.E.C. 2022-K19に掲載されたものです。
星図はステラナビゲータ Ver.10 (アストロアーツ) で作成したものです。
光度グラフはComet for Windowsで作成したものです。

---------------------------------------------------------------------

Copyright(C) Seiichi Yoshida (comet@aerith.net). All rights reserved.